This demonstration page uses our WeatherBlox Daily Observations layout. Learn more.

Left ArrowRight Arrow

Hourly Observations for August 29, 2020

Temp ( °F °C ) Dew Point ( °F °C ) Humidity (%) Winds ( mph kmh ) Pressure ( in mb ) Visibility ( mi km ) Precip ( " mm )
12:53 am 00:53 Clear 72 22.2 37 2.8 28 28 SSE 16 26 29.79 1009 10 16 0.00 0.00
1:53 am 01:53 Clear 63 17.2 37 2.8 38 38 NE 6 9 29.78 1008 10 16 0.00 0.00
2:53 am 02:53 Clear 59 15 38 3.3 46 46 ENE 7 11 29.76 1008 10 16 0.00 0.00
3:53 am 03:53 Clear 52 11.1 37 2.8 57 57 W 5 7 29.76 1008 10 16 0.00 0.00
4:53 am 04:53 Clear 48 8.9 35 1.7 61 61 SW 5 7 29.76 1008 10 16 0.00 0.00
5:53 am 05:53 Clear 46 7.8 34 1.1 63 63 WSW 6 9 29.76 1008 10 16 0.00 0.00
6:53 am 06:53 Sunny 47 8.3 34 1.1 61 61 Calm 29.75 1008 10 16 0.00 0.00
7:53 am 07:53 Sunny 52 11.1 36 2.2 55 55 Calm 29.75 1008 10 16 0.00 0.00
8:53 am 08:53 Sunny 60 15.6 38 3.3 44 44 Calm 29.74 1007 10 16 0.00 0.00
9:53 am 09:53 Sunny 68 20 38 3.3 33 33 W 7 11 29.70 1006 10 16 0.00 0.00
10:53 am 10:53 Sunny 78 25.6 37 2.8 23 23 WSW 14 22 29.67 1005 10 16 0.00 0.00
11:53 am 11:53 Sunny 82 27.8 32 0 16 16 W 16 26 29.65 1004 10 16 0.00 0.00
12:53 pm 12:53 Sunny 84 28.9 31 -0.6 15 15 VRB 5 7 29.62 1003 10 16 0.00 0.00
1:53 pm 13:53 Sunny 88 31.1 31 -0.6 13 13 WSW 12 19 29.60 1002 10 16 0.00 0.00
2:53 pm 14:53 Sunny 91 32.8 28 -2.2 10 10 WSW 16 26 29.58 1002 10 16 0.00 0.00
3:53 pm 15:53 Sunny 92 33.3 29 -1.7 10 10 NW 15 24 29.57 1001 10 16 0.00 0.00
4:18 pm 16:18 Sunny 91 33 32 0 12 12 NNW 21 33 29.41 996 10 16 0.00 0.00
4:31 pm 16:31 Sunny 90 32.2 33 0.6 13 13 NW 17 28 29.42 996 10 16 0.00 0.00
4:53 pm 16:53 Sunny 87 30.6 35 1.7 16 16 NNW 22 35 29.58 1002 10 16 0.00 0.00
5:53 pm 17:53 Sunny 84 28.9 39 3.9 20 20 NNW 20 31 29.60 1002 10 16 0.00 0.00
6:53 pm 18:53 Sunny 78 25.6 42 5.6 28 28 NNE 15 24 29.63 1003 10 16 0.00 0.00
7:53 pm 19:53 Sunny 71 21.7 41 5 34 34 NNE 16 26 29.66 1005 10 16 0.00 0.00
8:53 pm 20:53 Clear 68 20 41 5 38 38 N 9 15 29.69 1006 10 16 0.00 0.00
9:53 pm 21:53 Partly Cloudy 65 18.3 42 5.6 43 43 NNE 15 24 29.69 1005 10 16 0.00 0.00
10:53 pm 22:53 Partly Cloudy 64 17.8 41 5 43 43 N 6 9 29.71 1006 10 16 0.00 0.00
11:53 pm 23:53 Clear 61 16.1 39 3.9 44 44 NNE 16 26 29.70 1006 10 16 0.00 0.00

Powered by AerisWeather